Wind_Gust
15 15 15 15 15 15 15 15 15 15 15 15 15 15 15 15 15 15 15 15 15 16 16 15 15 15 15 16 17 17 14 14 15 10 6 25 14 19 10 12 11 14 8 5 4 2 5 4 5 8 5 2 7 5 11 6 7 4 8 9 9 14 12 11 14 9 7 20 19 18 13 6 4 5 7 7 17 14 10 15 10 23 19 18 21 29 27 25
15 15 15 15 15 15 15 15 15 15 14 14 14 14 15 15 15 15 15 15 15 15 15 15 15 15 14 14 16 16 13 11 14 12 27 13 14 16 17 20 19 10 12 4 6 5 4 5 10 5 6 5 4 8 3 9 7 9 7 8 17 11 16 5 11 8 10 11 18 11 7 6 4 3 4 5 2 8 13 12 13 22 20 20 21 24 24 23
16 15 15 15 15 15 15 14 15 15 15 15 15 14 14 14 14 14 14 14 14 14 14 15 15 15 15 14 14 12 12 11 9 14 22 25 24 16 17 15 12 15 15 7 6 7 10 3 5 4 7 7 6 9 6 12 4 8 9 12 14 8 10 10 8 8 6 8 7 9 7 6 8 6 5 3 5 10 14 14 10 19 19 18 19 20 19 17
16 15 15 15 14 15 15 15 14 15 15 15 15 15 15 15 15 14 13 13 14 14 14 15 15 15 14 14 14 9 7 8 6 9 7 3 20 24 18 15 12 15 6 3 3 5 2 6 9 7 9 10 10 7 8 11 8 8 9 13 13 10 11 15 5 7 7 7 6 6 8 6 9 8 5 3 2 3 4 11 20 21 23 21 17 19 17 17
16 15 15 15 15 15 15 15 15 15 15 15 15 14 14 14 14 15 14 13 13 14 14 14 14 15 15 14 12 6 7 4 5 4 4 6 12 21 21 14 14 9 8 2 2 4 5 6 6 5 7 14 9 3 9 7 15 5 11 14 16 12 9 17 13 9 9 7 9 9 4 6 6 11 10 4 3 10 13 11 19 27 28 30 24 17 14 15
16 15 15 15 15 15 15 15 15 15 15 15 15 15 15 15 14 13 13 13 13 13 13 13 13 14 15 13 9 7 2 6 6 5 5 5 9 14 18 14 10 8 6 3 5 2 2 4 5 6 7 8 8 12 9 11 8 16 13 9 14 17 14 9 9 11 1 9 4 4 2 2 5 7 6 2 6 8 4 16 22 23 23 23 21 20 15 12
16 15 15 15 16 15 15 15 15 15 14 14 15 15 15 14 14 14 14 13 13 12 13 13 13 13 13 13 5 5 4 20 7 10 9 7 8 11 12 11 10 8 8 7 4 7 3 4 3 8 7 6 6 14 13 7 7 13 22 7 13 13 19 20 13 7 6 7 8 6 1 3 2 5 4 6 5 6 19 23 25 23 22 21 22 14 17 15
16 16 16 16 15 15 15 15 15 15 15 15 15 14 14 14 13 13 13 13 12 13 13 12 12 12 10 8 4 3 3 16 17 3 9 10 9 11 13 7 9 7 8 10 9 6 2 6 10 7 8 7 7 6 6 7 4 9 17 14 15 10 13 16 11 6 8 8 13 5 3 6 5 5 2 5 10 15 19 23 25 24 22 17 17 17 15 14
16 16 16 16 15 15 15 15 15 15 15 15 15 14 14 14 14 13 13 12 12 11 12 12 12 10 8 5 4 6 12 13 6 11 12 11 9 10 12 10 7 11 8 6 5 4 3 6 8 12 10 6 7 9 8 7 16 11 19 17 13 12 10 10 10 9 11 11 6 7 7 6 9 8 5 16 11 18 20 22 22 22 20 19 17 15 15 14
16 16 16 15 15 15 15 15 15 15 15 15 15 14 14 14 13 13 13 12 12 11 11 11 11 8 6 5 3 2 9 6 8 13 11 12 11 9 7 4 11 8 7 7 5 5 9 15 11 6 5 11 6 10 6 6 14 8 7 8 14 14 10 6 8 8 6 8 5 8 5 6 6 7 8 8 17 20 20 20 18 20 19 16 15 14 14 18
17 16 15 15 15 15 15 15 15 15 15 15 15 14 14 13 13 13 12 12 12 12 11 11 10 6 6 5 3 11 8 8 4 9 12 13 13 12 12 7 11 12 10 5 11 14 14 15 13 11 13 12 8 10 5 8 4 10 9 6 7 8 7 6 4 8 5 10 3 4 10 7 5 5 13 14 13 22 22 19 18 18 17 18 16 15 13 14
18 16 16 16 15 15 15 15 15 15 15 15 15 14 14 13 13 13 12 11 11 11 10 8 6 5 6 3 4 18 5 4 10 10 13 13 12 14 9 10 11 9 8 7 9 9 13 17 12 12 15 5 9 11 8 12 11 13 10 11 7 7 14 7 9 8 4 12 2 6 4 8 6 9 12 25 16 19 23 20 18 17 18 17 16 16 14 13
19 18 16 16 15 15 15 15 15 15 15 15 14 14 13 14 13 13 12 11 9 9 8 9 7 6 4 5 20 19 9 2 9 9 8 10 7 8 11 7 11 13 14 13 10 10 12 7 6 11 8 4 4 10 12 11 10 9 9 6 9 10 16 14 6 10 9 10 4 6 14 16 14 12 18 23 24 19 22 20 19 18 18 17 16 15 13 11
20 18 17 16 16 15 15 15 15 15 15 14 14 14 14 13 13 12 11 11 11 10 9 8 2 4 3 14 17 8 10 13 11 8 10 11 8 7 9 11 11 10 8 11 14 15 12 6 2 7 3 2 9 5 12 14 4 4 9 5 5 6 18 10 13 10 10 12 5 6 12 20 16 8 21 19 25 24 20 18 17 18 17 16 15 15 15 10
21 20 18 17 16 16 15 15 15 15 14 14 14 13 11 12 12 12 11 10 11 11 8 4 4 2 3 21 12 13 19 10 14 14 13 12 9 5 8 10 11 12 13 12 12 6 6 6 3 5 7 4 5 7 11 11 10 8 12 11 10 8 17 19 6 7 19 14 10 10 11 22 18 12 31 21 21 23 23 17 19 18 18 16 15 16 15 12
23 21 19 17 16 16 15 15 15 15 14 15 14 13 14 14 12 12 11 10 9 8 3 3 7 4 4 19 11 12 7 9 15 18 15 14 13 11 11 10 7 8 9 9 9 9 6 2 4 6 6 8 5 4 5 13 14 11 5 7 11 4 14 18 13 13 20 14 6 18 18 7 9 11 25 24 22 22 22 19 17 19 18 17 15 16 15 15
24 23 20 18 16 15 15 14 14 14 14 14 15 15 14 13 12 9 9 7 6 8 7 4 5 6 4 8 11 5 11 10 5 8 9 11 13 12 6 5 9 10 6 7 10 7 7 6 5 4 4 7 4 3 5 8 9 14 4 13 7 7 8 16 22 13 19 14 12 21 17 5 3 10 23 19 21 22 23 17 14 14 14 13 13 14 17 17
24 24 22 19 17 16 15 14 14 14 15 14 13 12 12 7 7 9 4 5 7 7 9 10 7 4 24 9 8 9 5 5 8 10 11 11 13 8 6 11 7 7 3 6 6 6 5 7 4 8 5 6 3 6 5 9 7 7 7 6 10 4 8 18 20 10 10 14 17 10 13 4 6 8 24 23 20 21 22 23 20 18 16 14 13 12 13 17
25 24 23 21 18 16 15 14 14 13 13 14 18 18 12 6 6 3 4 6 5 3 6 7 9 10 8 9 10 8 7 11 6 9 9 10 8 8 7 5 4 5 4 6 11 5 5 5 10 4 8 5 7 10 13 14 8 11 6 5 4 6 16 13 18 8 16 10 15 11 16 10 8 6 5 11 18 21 15 15 16 16 17 16 15 14 14 14
25 24 23 22 20 17 15 13 10 11 11 10 11 5 5 4 4 4 2 3 9 10 12 10 17 10 18 18 12 7 5 6 10 10 6 8 8 6 7 8 7 6 5 9 5 6 6 5 8 8 12 13 9 10 14 15 11 7 4 4 3 6 13 17 11 7 6 12 3 3 5 4 4 4 6 4 5 15 20 17 16 14 15 16 17 18 17 17
25 25 24 23 21 19 16 13 9 5 6 4 7 6 7 4 5 10 7 14 12 14 16 13 20 20 25 13 14 11 7 8 8 10 12 9 5 8 7 7 3 6 7 8 10 5 7 6 13 14 14 13 13 10 7 4 4 3 3 5 11 4 9 15 7 6 8 9 2 3 8 4 1 5 7 18 11 20 19 16 14 16 14 15 16 15 15 14
26 25 24 24 22 20 18 13 9 6 3 3 3 8 9 8 9 7 11 23 9 19 17 22 14 19 23 19 22 14 15 11 8 5 5 11 6 12 5 7 7 12 5 5 3 5 4 13 18 18 17 9 8 5 3 5 1 3 3 4 6 6 6 14 12 14 13 11 2 3 6 4 5 5 4 19 19 16 19 25 25 21 15 14 15 15 14 13
27 26 25 24 22 21 19 15 6 2 4 4 5 3 11 9 3 8 9 13 23 11 16 17 16 18 24 21 21 6 9 13 18 10 13 10 5 13 6 8 8 9 8 2 9 3 7 12 21 22 8 6 6 6 2 5 5 2 8 5 7 5 6 10 13 9 11 9 6 2 7 11 6 6 7 19 23 17 16 21 22 22 24 20 22 23 21 17
27 26 25 24 23 22 20 15 9 3 6 7 7 13 15 6 11 13 7 11 17 21 16 18 17 16 19 20 13 18 20 15 11 11 9 16 15 8 10 10 6 5 11 8 10 14 19 17 8 5 8 12 10 6 4 6 4 4 2 6 7 6 2 4 11 7 5 7 4 6 12 16 10 7 9 5 10 15 15 10 13 13 22 24 19 15 23 26
27 26 25 25 23 23 24 15 5 9 6 3 10 15 14 15 11 7 7 15 11 20 7 9 14 13 19 9 6 12 16 12 17 9 16 17 10 9 12 9 8 12 12 10 7 7 16 20 5 6 6 7 9 5 4 9 2 5 7 9 7 4 2 4 7 7 15 11 8 7 8 13 11 9 6 10 7 18 15 15 17 15 6 12 18 17 9 11
26 26 24 23 23 25 21 9 4 9 7 13 12 12 11 6 5 8 11 9 15 15 6 9 16 16 19 16 10 13 4 18 11 11 18 18 17 18 10 10 15 13 9 5 13 19 20 13 9 11 4 4 7 5 4 7 4 2 12 7 6 7 6 6 5 8 3 5 8 4 8 13 13 8 8 7 9 13 7 11 15 12 14 15 17 16 17 17
25 25 23 22 21 21 11 4 5 12 8 10 3 10 9 12 2 9 12 11 11 12 9 4 10 14 12 7 16 10 8 18 9 8 15 19 16 10 8 12 7 6 6 5 9 13 4 6 8 3 5 5 5 2 6 9 9 9 8 6 6 3 4 4 8 3 6 5 8 6 10 9 12 15 9 2 6 8 10 12 11 19 15 17 16 18 18 20
25 24 23 22 20 12 8 12 13 8 11 10 9 12 10 10 6 11 13 10 18 7 6 4 9 6 4 5 13 19 15 6 7 9 19 18 10 9 14 8 11 7 4 5 7 13 4 4 5 4 3 4 4 7 6 5 8 11 5 6 3 2 5 5 7 4 3 5 13 10 4 5 8 15 12 7 11 7 10 14 16 21 21 21 22 24 23 20
26 24 23 21 23 16 6 7 2 10 9 6 15 15 14 6 12 11 10 9 11 11 12 9 11 3 4 3 10 11 11 4 6 3 8 13 13 14 13 12 7 3 3 6 9 11 9 10 12 12 11 8 9 8 7 10 4 8 11 3 4 2 2 4 3 4 7 7 7 8 4 11 11 12 11 8 3 7 6 3 14 21 21 19 16 8 10 12
26 25 22 20 15 4 4 4 13 14 9 14 15 14 6 10 11 8 8 11 10 9 6 7 9 7 5 10 10 7 12 6 3 5 15 19 10 3 8 7 9 5 7 4 4 14 13 8 14 12 13 13 9 6 5 6 8 3 4 4 9 12 8 7 8 4 6 5 8 9 5 4 8 10 7 5 5 4 2 6 6 12 12 11 10 14 16 16
29 26 22 13 8 7 6 10 17 13 13 9 13 8 9 13 9 8 4 19 12 11 5 4 11 5 8 7 11 8 10 7 6 10 7 7 8 9 4 9 7 7 6 8 9 11 9 4 5 7 5 5 4 7 4 4 2 4 4 5 9 12 14 12 10 10 8 9 9 2 5 4 4 12 13 11 12 9 16 4 8 13 12 13 9 9 10 12
29 29 23 11 12 5 10 15 5 4 11 12 10 8 10 5 9 10 16 8 15 10 5 4 2 6 9 9 8 13 15 7 6 14 16 12 7 13 9 10 7 6 8 4 12 10 9 5 5 10 8 5 5 2 14 6 8 11 10 13 10 7 12 8 11 7 5 11 6 2 5 8 5 10 11 11 13 10 14 18 15 13 12 14 15 15 12 12
31 27 30 19 12 8 14 23 12 14 10 9 8 8 9 8 10 11 14 5 11 3 9 8 6 8 8 5 12 11 9 11 6 11 10 9 11 10 6 15 10 13 9 7 3 7 11 11 7 7 7 5 10 8 7 7 6 7 5 8 10 4 4 6 8 6 7 13 8 4 3 7 9 12 4 9 12 7 10 15 16 20 18 16 17 16 16 14
30 29 20 9 14 18 10 4 10 4 5 7 8 11 10 6 15 9 10 12 14 12 13 11 8 14 6 19 15 11 11 10 11 14 9 7 6 7 6 7 9 4 9 3 8 5 6 13 11 5 8 8 11 12 14 11 3 10 9 15 15 15 15 10 10 10 13 13 7 5 8 10 4 13 6 10 13 13 11 20 16 15 15 16 16 16 16 14
33 23 13 13 11 18 21 15 7 2 2 5 11 10 11 17 9 8 9 7 11 10 12 13 23 17 13 21 9 13 6 7 9 3 10 13 10 10 12 9 8 10 7 7 7 5 6 14 13 10 7 4 7 7 8 6 8 6 5 11 10 13 14 10 16 11 6 4 5 5 8 10 10 7 2 11 19 16 14 16 17 15 14 14 17 16 14 12
18 11 6 15 8 10 15 14 7 6 10 9 10 9 14 18 11 8 13 4 8 12 22 27 14 15 14 13 6 11 11 15 10 12 6 9 11 11 9 13 18 15 12 18 11 7 4 9 7 10 6 4 10 6 8 7 10 7 9 5 6 9 15 9 5 3 9 11 12 6 4 6 11 9 12 10 13 14 13 15 17 14 13 14 15 13 13 12
16 16 14 7 9 7 10 13 16 13 10 13 10 13 17 15 14 12 11 10 13 14 12 15 17 3 6 6 5 12 14 12 13 20 17 5 9 7 9 10 11 14 18 19 5 8 13 12 11 4 7 9 9 10 4 4 13 11 4 12 5 7 10 13 10 5 4 7 14 3 6 3 5 14 11 14 10 7 10 18 18 18 14 18 13 12 13 12
17 12 12 14 19 12 12 15 17 9 13 10 10 10 7 11 7 12 9 19 20 8 14 11 13 10 6 6 14 7 6 17 6 12 11 11 17 11 7 8 8 6 5 8 14 5 11 10 8 2 3 9 15 6 13 4 3 11 11 6 9 8 10 9 12 4 4 6 8 5 4 4 6 8 9 7 7 9 7 6 15 15 17 18 15 13 11 10
7 7 19 15 6 14 12 18 14 12 8 9 9 8 12 17 13 15 16 18 13 12 14 11 11 6 8 5 6 9 5 15 12 16 14 7 10 6 5 6 5 7 9 11 11 6 8 9 13 9 7 7 7 11 6 11 12 8 3 7 4 15 6 5 9 9 14 6 3 9 6 7 5 5 3 1 4 13 10 8 6 12 12 14 14 13 14 12
7 10 11 8 8 11 16 17 12 9 10 10 7 14 5 13 15 12 14 13 15 8 12 5 2 4 4 4 5 5 9 9 10 9 7 9 9 7 3 5 4 4 6 9 7 4 4 6 7 14 6 7 11 9 6 8 12 14 13 7 7 7 6 12 7 5 7 10 6 6 5 7 11 7 2 6 4 3 15 14 8 6 8 10 11 12 10 11
6 3 18 10 17 10 18 14 13 13 11 8 5 9 8 15 10 13 15 10 15 13 13 6 4 4 6 7 8 4 7 8 8 6 5 6 11 7 4 5 4 3 8 13 14 9 10 5 7 9 13 6 10 6 4 7 6 6 5 5 11 8 4 3 9 7 6 10 9 7 8 12 13 2 3 12 12 17 9 16 12 8 10 12 13 11 10 11
7 8 14 14 20 4 20 15 13 8 11 6 12 12 14 10 17 20 21 17 13 20 12 13 4 6 6 7 6 4 4 6 7 8 12 9 6 6 4 8 9 4 14 7 5 2 11 8 10 3 6 8 12 13 3 4 4 5 5 7 7 8 15 12 7 8 4 6 11 9 8 10 11 3 5 11 5 10 8 14 14 11 10 11 13 14 12 10
8 10 16 19 16 5 15 7 6 5 7 11 5 11 16 21 17 19 17 13 14 9 5 3 6 6 6 10 6 6 5 7 3 5 4 9 5 2 9 12 11 12 10 7 6 4 9 9 4 7 11 10 13 14 11 11 7 11 11 8 7 7 10 14 11 12 11 3 4 4 6 13 8 4 6 8 6 5 7 9 15 9 8 10 13 13 13 11
7 9 15 10 17 8 10 10 8 7 11 8 7 14 9 16 14 13 15 11 21 6 7 4 9 11 4 10 6 7 4 7 6 11 7 3 6 5 8 9 10 6 8 9 9 6 10 8 10 4 9 16 13 14 14 13 14 9 7 9 7 10 9 4 9 6 8 8 11 14 9 7 8 4 10 10 8 14 12 7 10 15 8 8 10 8 8 8
12 8 7 16 18 15 8 6 6 6 5 6 7 7 10 8 7 9 6 13 12 9 4 6 4 6 13 6 10 7 9 7 6 14 11 11 12 12 14 12 13 10 7 9 11 9 13 4 8 8 7 5 7 4 5 10 11 10 4 10 8 12 11 15 3 4 6 3 8 8 6 9 9 7 13 14 13 13 10 8 7 9 12 12 10 10 8 7
12 12 17 18 22 17 11 5 7 11 6 5 4 8 4 7 10 9 6 12 14 10 18 13 18 12 18 15 14 16 15 11 11 8 12 13 14 19 10 12 12 9 9 13 9 10 8 4 7 9 14 14 11 8 7 3 7 9 12 8 11 6 6 10 9 9 6 6 6 7 14 5 8 4 10 13 14 16 13 8 11 10 7 8 9 9 9 11
7 16 12 18 20 11 12 10 19 18 14 6 7 10 9 9 9 9 16 13 16 10 15 25 21 20 10 8 5 12 18 12 11 14 12 6 7 9 10 13 11 11 12 11 7 12 7 5 2 9 5 9 8 3 3 3 3 4 7 8 9 10 5 9 7 4 5 8 8 6 3 14 7 4 3 4 8 12 11 12 11 13 16 15 13 10 9 11
14 6 7 5 6 12 18 19 22 17 12 9 9 10 12 16 20 17 9 11 11 23 12 15 24 18 12 8 9 16 14 10 16 11 8 12 7 13 12 13 11 13 10 7 7 10 10 6 4 4 2 3 3 4 6 8 3 2 3 5 7 4 12 8 2 1 6 6 5 3 3 8 4 3 2 5 6 12 15 16 12 10 12 9 10 13 12 14
8 7 6 11 10 6 7 14 14 10 16 15 7 16 19 17 18 20 15 12 16 19 16 13 18 19 19 16 13 10 13 9 13 9 13 13 6 8 8 8 8 13 9 7 9 4 11 3 3 4 3 5 5 6 8 10 10 8 6 3 1 6 5 5 2 1 6 4 6 10 9 9 3 3 6 6 7 8 7 8 6 5 3 3 7 11 15 14
15 11 14 11 5 6 11 11 7 14 17 20 14 15 19 18 14 14 23 20 13 12 14 18 14 16 16 19 16 14 6 4 2 4 8 9 14 8 7 4 6 11 11 5 3 7 12 7 5 3 6 4 4 8 11 11 9 8 6 4 3 2 4 3 4 2 9 6 4 5 11 9 7 4 5 5 10 13 19 17 10 7 7 5 4 5 5 3
7 3 6 10 16 17 13 15 12 12 21 24 18 18 15 19 14 11 16 18 16 10 8 8 7 11 16 18 17 13 8 7 6 5 6 6 7 6 5 9 6 7 10 8 4 4 9 5 4 5 6 6 4 7 7 8 6 6 7 8 8 6 5 7 8 4 8 6 2 12 13 6 7 6 3 11 17 19 14 11 14 11 8 9 10 7 4 7
7 4 3 4 12 14 11 12 18 15 20 17 19 12 18 18 11 9 9 13 17 15 7 7 5 14 10 16 13 9 10 6 8 12 10 12 8 9 7 10 4 4 7 6 1 6 6 9 6 5 8 7 5 9 7 7 11 12 7 7 3 3 8 9 11 12 6 7 12 13 5 3 4 5 9 12 16 16 16 9 8 10 11 13 12 9 6 7
Wind_Speed
12 11 11 12 12 12 12 12 12 12 12 12 12 12 12 12 12 12 12 12 12 12 12 12 12 12 12 12 13 14 11 7 10 5 3 14 9 14 7 10 6 9 5 3 2 2 3 1 2 3 1 1 2 0 3 2 2 2 1 2 4 6 6 4 5 1 2 7 10 12 3 2 3 2 2 4 10 4 6 9 4 15 13 10 12 19 18 16
12 12 11 12 12 12 12 12 12 12 11 11 11 11 12 12 12 11 12 11 11 12 12 12 12 12 12 11 12 13 9 6 9 8 16 7 10 13 14 14 14 6 9 2 3 2 1 2 3 1 0 1 1 2 1 2 2 3 1 3 9 4 6 2 3 1 2 6 8 7 3 2 1 1 1 2 1 3 7 7 8 13 13 14 13 16 15 14
12 12 12 12 12 12 12 12 12 12 12 12 12 11 11 11 11 11 11 11 11 11 11 12 12 12 12 11 12 10 8 6 5 9 14 16 18 12 13 13 10 11 8 4 3 4 5 0 3 3 1 1 2 4 1 4 0 3 4 6 7 4 5 6 3 5 4 5 4 5 4 4 5 2 2 1 4 3 9 7 4 12 13 12 13 14 13 12
13 12 12 12 11 12 12 12 11 12 12 12 12 12 12 12 12 11 10 11 11 11 11 12 12 12 11 11 11 6 4 4 2 4 4 1 15 18 14 12 8 10 4 0 2 3 1 1 3 1 2 4 4 2 2 4 1 2 3 5 5 5 5 8 4 5 4 4 4 4 4 3 5 3 0 2 0 0 2 7 13 13 16 15 12 13 11 11
13 12 12 12 12 12 12 12 12 12 12 12 12 11 11 11 11 11 11 10 10 11 11 11 11 12 12 11 10 4 3 2 1 2 2 4 9 16 16 11 10 6 5 1 1 1 1 1 0 1 1 3 3 1 4 3 5 0 5 6 8 6 4 10 8 6 6 6 6 6 3 3 3 4 6 1 1 5 6 4 10 18 19 20 16 11 9 9
12 12 12 12 12 12 12 12 12 11 12 12 11 12 12 11 11 10 10 10 10 10 11 10 11 11 12 11 5 3 1 2 2 2 3 5 7 11 14 11 8 5 4 2 2 1 2 1 2 1 2 3 5 6 4 6 3 5 5 5 8 9 8 5 4 5 1 2 3 1 1 1 3 4 3 2 3 4 1 10 13 15 16 16 14 13 10 9
13 12 12 12 12 12 12 12 12 12 11 11 11 11 11 11 11 11 11 10 10 10 10 10 10 11 10 10 2 2 1 7 3 7 5 6 7 9 9 9 9 5 4 4 3 2 2 1 1 3 2 3 4 5 7 2 5 6 8 5 9 9 11 13 8 6 4 6 4 3 1 1 1 2 1 1 3 3 12 14 15 14 14 15 14 10 12 10
12 12 13 12 12 12 12 12 12 12 12 12 12 11 11 11 10 10 10 10 9 10 10 10 9 9 7 5 1 1 1 7 11 1 7 8 7 9 10 5 6 5 6 7 6 3 1 2 5 1 3 4 3 3 1 2 2 5 6 8 9 6 8 11 8 5 5 6 7 4 1 5 4 2 0 1 3 10 12 14 14 15 14 11 12 12 11 10
12 12 12 12 12 12 12 12 12 12 11 11 11 11 11 11 11 10 10 9 9 9 9 9 9 7 5 2 1 3 6 7 4 7 9 8 7 8 9 4 5 7 4 3 3 3 2 3 3 4 4 1 2 5 5 3 7 5 12 9 8 7 6 7 6 7 4 4 4 4 5 4 6 6 1 8 5 11 13 14 14 14 13 12 11 11 11 10
13 13 12 12 12 12 12 12 12 12 11 11 11 11 11 11 10 10 10 9 9 9 8 9 9 6 2 2 2 0 3 5 4 8 8 9 8 7 5 3 7 5 4 5 3 3 4 7 6 2 3 7 2 5 4 4 6 2 5 5 9 10 7 4 5 5 2 1 3 3 4 3 2 2 2 1 10 13 13 13 12 14 13 10 10 9 9 12
14 13 12 12 12 12 12 12 12 12 12 11 11 11 11 11 10 10 9 9 9 9 8 8 7 4 2 2 1 5 4 5 2 5 8 10 10 8 8 4 7 5 6 2 7 7 5 5 5 3 5 3 2 4 1 3 2 6 5 4 5 5 4 4 1 5 1 3 1 1 5 4 2 1 6 9 7 14 15 12 12 12 11 11 10 9 8 9
14 13 13 12 12 12 12 12 12 12 12 12 12 11 11 10 11 10 10 9 9 8 7 5 4 1 2 1 3 8 3 2 5 4 7 9 6 9 7 7 7 6 5 3 4 6 8 10 5 3 5 0 3 5 4 4 5 6 5 5 5 4 5 4 3 4 1 4 2 1 2 4 1 4 9 13 10 12 15 13 12 12 11 11 10 9 7 8
15 14 13 12 12 12 12 12 12 12 12 12 11 11 11 10 10 10 9 8 7 7 6 6 4 2 1 2 10 10 1 2 5 6 4 4 3 4 6 4 8 8 8 7 4 5 7 4 4 7 5 0 1 1 4 4 5 5 3 0 6 6 7 9 3 5 4 2 2 4 6 9 7 3 13 12 13 11 14 12 11 11 11 10 10 9 8 7
16 15 14 13 12 12 12 12 12 12 11 11 11 11 11 10 10 10 9 8 8 8 7 6 1 1 1 6 6 4 4 7 6 4 6 5 5 3 4 6 6 6 4 5 8 9 8 4 2 4 1 0 3 3 6 4 1 1 4 2 1 4 5 5 3 3 4 3 4 3 4 10 9 3 14 13 16 16 12 11 10 11 10 10 9 9 9 6
17 16 14 13 13 12 12 12 12 12 12 12 11 11 9 10 10 9 8 7 8 8 6 3 1 0 0 8 7 8 13 6 8 8 8 6 4 1 5 5 6 7 8 8 4 4 4 4 2 1 2 1 1 3 5 4 3 2 5 5 5 2 7 11 2 3 7 2 7 5 4 10 9 8 15 11 13 14 14 11 12 10 10 10 9 10 9 7
18 17 16 13 13 13 12 12 12 12 12 12 12 11 11 12 10 9 8 7 6 5 0 2 3 2 2 7 3 7 3 4 7 12 9 10 7 6 7 6 3 5 6 5 6 3 3 1 1 2 2 4 2 1 2 7 7 5 1 3 5 2 7 8 8 7 12 5 2 10 6 3 4 8 17 16 14 14 14 12 10 11 11 10 9 9 9 9
19 18 16 15 13 12 12 11 11 11 12 12 12 12 11 10 9 7 6 6 3 4 3 0 2 3 0 3 4 2 3 3 4 4 5 5 8 7 2 2 4 6 4 4 6 4 4 2 2 1 2 1 1 2 3 4 4 4 1 3 3 4 4 5 13 6 11 8 5 9 5 2 1 5 13 12 14 15 14 11 9 9 8 8 8 9 10 10
19 18 17 16 14 13 12 12 11 11 12 11 11 8 6 4 4 6 3 2 3 3 3 4 3 2 9 2 2 4 0 2 3 5 8 6 8 6 3 3 5 4 0 2 3 1 1 2 0 4 2 3 1 3 2 4 2 3 3 2 5 2 5 11 4 5 6 8 10 6 8 3 1 5 12 13 13 14 14 15 13 12 10 9 8 8 8 9
19 18 18 17 15 13 12 11 11 11 11 11 14 12 7 3 3 1 1 2 2 1 1 1 2 2 2 4 4 6 3 6 2 5 4 4 3 3 3 2 1 2 0 1 4 1 1 0 4 2 3 2 3 5 7 9 5 7 3 2 2 3 7 4 9 5 9 5 8 7 9 4 3 1 1 2 6 10 9 9 9 9 10 10 9 9 9 8
20 20 19 18 16 14 12 10 8 9 10 7 5 2 2 1 1 0 0 2 4 6 7 6 9 4 11 10 6 2 2 0 3 5 4 3 4 4 4 3 3 2 2 3 1 2 3 2 4 5 7 8 6 6 7 8 7 5 1 2 0 4 6 6 7 5 3 6 2 2 4 3 0 4 5 3 2 3 10 10 9 8 9 9 9 10 10 11
20 20 19 18 17 16 13 11 8 4 5 2 4 1 1 1 2 2 2 8 7 8 9 6 13 12 12 5 7 6 2 3 5 5 7 5 3 5 2 3 1 2 2 5 4 2 3 3 7 9 9 8 9 7 2 0 1 0 1 3 3 2 4 8 3 2 5 3 1 1 5 2 1 1 3 12 7 9 10 9 9 10 9 9 10 9 10 9
21 20 20 19 17 16 15 11 7 5 3 2 1 1 2 4 4 2 1 6 5 13 12 15 8 11 10 11 13 6 6 4 5 3 2 7 2 5 2 2 3 5 3 0 1 2 1 6 11 11 11 5 4 3 1 4 0 2 1 1 2 2 3 9 6 8 5 5 0 0 2 2 3 1 3 11 12 8 10 15 15 14 10 8 9 10 9 8
21 20 20 19 18 17 16 13 5 1 1 0 0 1 4 4 1 3 1 4 10 3 10 9 6 11 13 9 9 4 4 6 8 5 4 5 2 6 3 3 4 4 1 1 4 1 4 6 14 15 2 3 3 4 1 2 2 1 4 3 3 2 3 4 7 6 7 3 3 1 4 4 4 2 5 12 14 9 10 9 12 14 15 12 14 15 13 11
21 20 20 19 19 18 16 12 8 1 3 4 2 6 7 4 6 6 3 3 5 11 7 9 10 6 9 7 4 7 8 3 4 6 3 5 7 4 3 6 3 1 6 4 5 7 9 11 2 1 5 7 6 4 3 2 2 2 1 3 1 1 0 2 5 3 3 3 1 2 6 7 4 4 5 1 3 7 7 5 5 7 11 13 10 9 15 17
22 21 20 19 19 18 20 12 2 4 3 1 5 8 9 9 5 3 1 4 2 7 4 3 6 4 7 4 2 3 5 2 10 4 5 8 4 3 4 2 2 6 6 4 1 2 10 13 3 2 3 5 6 4 3 5 1 1 3 6 5 1 2 1 3 4 6 4 4 3 3 3 5 3 2 3 1 5 7 9 11 9 3 5 10 11 6 6
21 20 20 18 19 20 18 2 2 3 4 5 5 5 7 4 3 3 1 2 6 5 2 3 4 5 4 4 4 4 3 5 7 4 8 8 9 6 2 2 4 7 4 2 6 5 8 8 5 7 2 2 3 2 3 4 2 1 4 5 4 5 4 5 3 3 1 1 3 2 2 3 6 4 5 1 6 9 2 5 6 6 7 7 9 9 10 10
20 20 18 18 17 17 5 1 2 6 4 2 2 6 6 7 1 2 3 3 3 3 3 1 1 1 0 3 6 4 3 6 3 4 7 7 6 3 3 6 1 1 2 1 3 4 1 2 6 2 3 2 2 0 2 5 5 2 3 4 4 0 2 2 5 1 1 2 4 4 3 2 4 7 4 1 4 5 6 7 5 6 6 8 8 10 11 11
20 20 18 18 16 9 4 4 7 3 5 5 5 7 6 6 2 4 4 1 1 1 0 0 2 1 1 1 9 7 7 2 1 3 12 10 6 3 4 5 6 4 0 1 3 7 1 1 3 3 2 2 1 3 3 4 2 3 3 5 1 0 3 3 4 2 0 2 5 4 2 0 2 7 5 2 5 1 7 10 11 11 9 11 12 13 13 11
20 19 19 17 18 13 3 3 0 4 5 3 9 9 6 3 5 4 3 2 5 1 2 1 5 0 2 2 4 6 4 1 1 1 1 6 7 6 4 7 3 1 2 3 4 4 2 5 7 7 6 3 5 5 4 7 1 4 7 1 1 1 1 3 2 2 1 2 2 3 1 2 4 6 6 3 0 4 3 2 10 14 14 11 8 5 6 7
21 20 18 16 10 2 1 1 7 8 5 7 8 8 3 2 3 2 1 2 1 1 1 1 2 2 1 4 3 4 4 1 2 1 5 5 5 2 2 3 4 2 1 2 2 7 5 5 6 5 5 7 5 4 3 4 5 2 2 2 4 7 4 2 5 2 3 1 3 3 2 2 1 4 4 2 2 1 1 4 1 7 7 6 6 9 10 10
23 21 17 11 2 3 1 4 9 7 7 5 8 4 3 5 2 3 1 5 2 3 0 1 3 2 3 4 4 3 5 1 0 4 0 1 4 4 0 2 4 3 3 3 3 5 6 2 1 2 3 2 3 0 3 1 1 2 0 2 2 4 8 6 5 5 1 1 4 1 1 2 1 4 7 4 7 4 7 2 5 7 6 8 6 6 7 8
23 23 18 6 6 2 3 7 2 1 5 7 5 4 3 1 4 3 5 4 1 2 2 1 0 1 3 4 4 3 3 1 2 5 7 3 4 6 4 4 2 0 3 1 5 4 2 0 2 6 5 4 3 1 7 3 4 6 6 7 4 2 4 1 4 2 1 3 1 1 2 4 1 3 5 7 9 5 2 11 9 8 8 6 7 8 7 7
24 21 23 11 8 4 8 13 7 7 6 5 3 3 2 3 2 4 4 2 2 0 3 4 2 3 2 1 4 5 5 6 2 4 6 1 6 6 3 6 6 5 2 3 1 2 4 4 3 4 4 1 5 2 2 2 3 4 2 4 4 1 1 1 2 1 2 6 5 1 1 1 3 5 2 6 7 3 4 9 10 13 12 9 8 7 8 8
24 23 9 4 7 9 5 2 3 2 3 3 2 5 5 2 4 5 4 4 6 4 5 2 4 10 1 2 5 4 4 4 6 2 5 2 4 1 2 4 5 3 2 1 2 1 2 4 4 2 1 3 4 6 8 4 1 3 5 7 6 7 4 3 3 3 6 6 2 3 2 2 2 3 3 7 8 9 6 4 9 10 8 8 8 10 10 8
27 17 7 6 5 10 13 9 3 1 1 1 5 3 4 5 3 3 3 2 2 3 7 8 10 10 6 6 5 5 3 1 2 1 3 5 4 3 4 4 3 4 3 2 2 1 3 5 6 5 4 1 3 3 4 3 4 1 2 5 5 5 6 3 6 5 2 1 1 1 2 4 4 1 1 6 12 10 7 9 9 10 9 8 9 9 8 7
13 5 3 5 3 5 8 7 5 4 6 4 4 1 5 6 3 3 3 2 1 4 11 12 8 7 5 5 3 3 1 4 4 4 1 3 5 4 5 4 5 9 5 6 4 2 2 1 3 6 3 1 5 1 3 4 1 1 2 0 2 4 8 4 1 0 6 5 3 1 1 2 5 4 8 6 9 9 5 4 7 8 8 8 8 8 8 7
7 7 4 3 3 4 6 8 8 7 5 6 4 4 6 4 6 5 2 3 4 7 4 6 5 1 2 1 1 2 3 0 3 6 5 2 2 4 1 3 5 8 11 9 0 3 5 4 5 2 4 3 3 6 1 1 7 4 0 6 1 4 5 5 2 1 1 3 4 1 2 1 2 3 2 6 7 2 5 10 9 10 9 9 5 7 8 8
7 3 5 6 10 6 7 9 11 5 5 5 3 6 2 3 2 5 3 8 8 2 3 2 3 6 2 3 4 2 2 8 1 3 4 3 2 3 2 2 5 1 1 2 5 2 4 2 2 1 2 6 6 3 4 1 1 3 4 3 2 1 1 3 4 1 0 1 2 1 2 1 3 2 5 2 4 6 5 2 5 9 11 11 7 7 7 7
3 2 6 7 3 7 7 11 8 6 4 3 2 0 4 5 5 7 7 7 4 5 4 4 3 1 2 2 2 4 2 5 5 8 5 1 2 2 2 2 1 4 4 8 4 1 3 3 4 2 2 3 3 5 2 6 8 5 0 1 0 5 2 1 2 2 5 2 1 3 2 2 1 1 2 0 0 9 6 5 4 5 6 8 9 8 9 8
3 2 3 3 5 4 10 10 5 3 3 4 3 3 2 3 5 7 7 4 3 1 4 3 1 1 1 2 2 1 3 4 3 3 3 2 3 2 0 2 2 2 4 4 3 1 1 2 1 4 3 3 2 1 2 3 4 6 6 3 1 2 2 5 2 2 2 3 2 1 2 2 4 3 0 4 3 1 6 9 5 4 4 4 5 7 6 5
2 1 5 4 8 4 10 7 4 4 4 2 2 2 3 3 3 4 8 7 4 5 6 3 1 1 3 1 2 2 0 1 3 2 1 1 2 1 2 3 1 1 3 8 8 4 3 1 3 3 5 1 3 2 3 1 2 2 2 2 5 4 2 2 2 2 2 4 2 3 1 5 6 0 1 3 7 11 4 9 5 4 6 6 7 5 6 5
2 3 5 7 9 1 7 6 1 2 2 3 4 3 3 5 5 11 9 8 7 5 5 4 2 3 2 3 2 1 2 1 2 3 3 3 2 3 1 3 6 1 5 2 2 1 4 3 4 0 1 2 5 3 1 1 0 0 1 4 2 2 7 5 2 3 2 1 4 4 3 3 2 2 1 6 3 4 5 9 9 6 4 5 6 7 7 7
2 4 8 9 8 0 7 2 2 2 1 4 2 4 5 5 7 7 7 7 5 4 0 0 1 2 3 3 2 3 1 2 0 1 0 4 1 1 4 7 8 8 5 1 2 0 6 2 2 3 6 6 6 1 6 8 3 6 5 4 3 3 2 6 4 5 5 1 2 1 1 3 1 1 4 2 3 4 5 6 10 6 4 4 5 5 7 8
2 3 7 6 11 3 3 2 3 3 3 3 2 5 3 5 5 5 4 4 3 1 2 1 2 3 1 4 2 3 2 2 3 7 3 2 1 3 5 6 5 2 2 4 3 2 2 2 5 2 3 5 5 6 6 6 6 2 1 2 2 3 5 1 3 2 3 5 7 7 4 2 1 1 3 6 4 6 7 4 7 9 5 5 5 5 5 5
3 2 2 7 9 7 2 1 1 1 2 2 1 4 4 2 3 5 3 6 6 5 1 3 2 2 3 2 4 3 5 2 1 4 3 5 5 7 11 6 8 5 3 5 7 4 4 1 2 3 2 1 0 0 1 4 5 2 1 5 5 6 4 7 1 2 2 1 5 3 1 4 4 4 8 9 7 6 5 5 3 6 7 7 6 6 5 5
3 3 6 7 8 7 3 2 2 5 3 2 1 2 1 2 4 6 5 5 6 5 8 3 8 7 6 6 5 8 8 8 5 1 4 5 5 5 5 9 9 4 5 9 4 4 2 1 3 4 7 6 4 2 3 0 2 3 5 6 5 2 3 6 4 3 0 2 3 3 7 3 5 3 6 8 9 9 7 4 6 5 5 5 6 6 6 6
1 5 3 7 6 4 6 4 9 7 5 1 2 3 5 4 3 2 11 3 10 4 5 11 6 5 3 5 3 6 6 4 6 8 6 3 4 2 6 7 6 8 7 4 4 5 3 2 0 6 3 4 4 0 0 1 1 1 4 4 4 6 3 6 4 0 2 3 3 2 1 8 4 2 2 3 5 8 6 6 5 5 8 9 8 7 6 5
4 2 3 2 1 3 8 9 10 9 8 5 2 3 6 10 12 7 3 6 6 12 3 7 14 11 8 4 4 5 7 3 7 4 4 6 4 8 5 7 6 9 5 2 4 4 3 2 1 3 1 1 2 1 3 3 2 1 2 2 4 2 7 5 1 0 3 2 2 1 1 3 1 2 0 3 4 8 10 9 5 5 5 5 5 5 6 8
3 1 1 5 3 2 3 7 9 6 9 8 1 8 9 9 9 8 5 3 7 8 9 5 8 11 12 10 6 4 6 4 6 2 4 6 3 4 4 4 5 9 5 3 4 1 4 1 0 2 2 3 3 5 6 7 4 3 3 0 0 3 3 3 1 1 3 2 3 6 6 5 1 2 4 4 2 4 4 5 3 3 1 1 1 1 4 8
5 3 5 4 1 2 6 7 2 8 9 11 5 8 7 7 7 6 9 8 3 4 3 9 7 9 10 12 10 6 2 3 1 1 3 4 7 3 2 1 2 6 6 2 1 4 5 1 3 2 2 1 3 5 7 7 6 3 2 2 1 1 1 3 2 1 6 4 2 4 8 5 3 3 2 1 3 5 10 9 7 5 5 3 2 0 1 2
2 1 1 3 6 7 5 8 6 6 9 11 7 6 6 10 6 4 8 8 7 3 3 4 4 7 9 12 10 7 2 2 2 2 3 1 1 2 2 3 4 4 5 3 2 2 4 1 2 2 2 1 2 5 4 4 4 4 4 5 5 4 3 3 3 2 3 4 2 8 6 2 2 3 2 5 9 11 9 7 8 6 4 4 5 3 4 5
1 2 0 1 3 6 4 4 9 6 9 6 6 7 7 12 7 3 3 6 9 7 2 4 3 8 4 9 7 4 4 2 4 6 5 4 4 5 4 5 3 2 3 1 0 1 1 4 2 2 2 2 2 4 5 5 6 5 3 4 2 2 6 4 5 8 3 4 6 7 3 1 2 1 6 7 9 9 9 6 5 6 5 7 7 5 1 4
Wind_Direction
317 313 313 313 313 311 310 308 307 304 304 305 306 306 307 306 309 310 308 304 303 304 305 304 305 307 305 308 311 315 327 326 309 304 234 240 198 219 199 220 247 229 163 179 282 332 323 323 271 260 326 69 252 206 238 209 183 102 202 148 251 227 244 215 237 119 276 327 315 313 335 313 112 346 314 31 46 92 64 58 43 47 46 79 108 118 133 139
315 313 312 311 308 307 306 305 305 302 301 301 300 301 301 304 308 306 306 306 307 304 303 301 303 304 308 311 315 320 333 299 285 272 238 224 190 205 218 236 252 273 137 107 210 207 232 278 267 357 95 263 219 217 130 274 151 148 196 141 236 207 246 239 250 314 347 285 284 293 315 21 47 13 332 86 22 100 57 49 69 80 70 79 94 114 128 136
313 312 310 307 304 303 301 301 300 301 301 301 302 303 304 302 304 305 304 305 305 304 299 303 306 307 307 313 318 333 337 306 274 258 259 233 222 206 215 221 234 157 161 162 209 184 186 13 355 9 203 277 279 230 183 257 306 229 168 240 248 215 246 255 246 250 238 261 286 315 338 19 307 30 308 131 118 115 125 127 68 104 117 112 119 126 134 140
311 310 306 303 303 300 299 298 297 296 296 297 297 298 300 303 304 304 303 303 302 303 310 308 305 305 306 314 320 335 317 280 301 251 249 330 196 208 212 209 191 175 167 66 132 158 182 299 311 309 303 214 278 225 216 247 164 266 143 212 235 223 246 265 245 242 258 263 269 278 321 26 313 303 109 216 21 121 261 178 151 156 139 132 135 140 146 145
310 305 303 301 302 300 296 297 299 297 296 296 296 296 295 295 296 301 303 303 305 310 306 303 304 304 312 313 323 347 318 25 192 234 271 315 188 196 204 199 195 174 169 154 123 261 250 252 44 343 208 261 244 248 237 237 209 1 209 219 227 250 247 256 250 261 254 249 300 304 336 294 298 357 351 354 239 243 200 198 150 147 144 143 148 153 140 137
309 305 301 302 300 296 294 294 293 293 291 293 294 295 296 299 299 297 296 298 302 303 303 308 309 311 312 317 313 295 302 88 277 274 83 10 170 184 190 185 166 145 142 206 155 123 147 236 147 184 237 190 218 190 255 202 176 241 274 265 248 240 234 258 245 242 171 270 263 301 243 253 48 311 283 22 279 250 195 121 136 141 144 138 133 135 129 129
310 306 305 302 299 295 293 292 292 291 292 290 289 290 295 295 295 296 296 297 298 299 303 309 308 313 318 313 250 180 221 272 288 251 102 97 101 124 129 134 142 139 148 151 178 178 143 167 156 229 254 245 256 201 240 218 176 205 248 247 256 237 234 248 251 252 246 219 242 223 128 198 96 330 294 75 296 72 112 125 127 128 127 128 127 131 133 134
313 314 308 300 297 296 296 294 292 291 288 289 290 290 290 290 289 290 292 295 297 299 303 304 307 312 333 334 148 260 143 250 242 128 134 105 97 110 113 117 145 153 166 189 170 169 131 229 226 268 233 195 217 185 268 338 174 207 257 254 257 243 235 247 243 241 254 252 252 231 265 255 175 195 25 232 136 115 111 114 117 122 123 120 125 134 129 126
319 313 306 299 297 298 295 291 291 290 286 285 288 291 290 289 290 292 292 291 290 289 290 297 301 310 331 276 264 323 256 232 204 152 139 131 128 123 129 142 175 162 194 179 173 157 131 250 230 190 259 300 254 257 270 253 301 220 226 244 251 246 256 244 261 242 247 272 233 253 271 268 237 181 91 170 128 119 116 114 121 122 120 125 133 131 128 126
322 315 307 301 299 298 295 291 291 290 290 289 289 286 285 288 292 292 292 292 290 289 291 292 301 322 357 227 247 27 260 154 104 143 141 132 127 133 175 162 162 172 163 209 157 163 192 221 185 232 248 269 258 243 251 174 233 244 284 251 243 246 243 265 232 291 297 232 267 271 273 266 278 159 18 299 132 120 115 116 121 122 126 130 131 127 130 134
326 318 312 308 306 300 295 293 292 292 288 283 282 284 285 285 283 283 283 286 285 285 285 288 294 347 282 248 141 213 245 108 119 141 149 143 136 143 190 183 179 173 194 197 205 196 233 247 252 296 265 228 343 295 260 220 318 290 249 269 266 277 230 226 280 271 298 305 209 181 274 260 300 99 170 162 152 133 124 125 125 126 130 135 134 130 129 126
330 325 319 311 303 297 296 295 292 288 287 285 284 283 285 287 286 285 282 281 281 281 283 279 307 269 255 244 203 231 266 158 151 164 165 146 152 188 183 183 181 195 167 213 240 221 215 232 241 231 239 317 328 319 302 286 325 290 316 338 288 349 336 311 284 273 202 267 246 165 6 326 305 223 152 154 149 137 127 131 132 133 135 137 133 129 129 131
337 330 320 312 307 304 300 295 290 289 288 287 286 286 287 286 284 282 282 281 267 267 271 294 306 262 291 319 225 234 200 68 166 162 201 190 147 182 199 190 198 202 192 192 235 236 231 211 216 234 230 134 194 260 280 326 287 310 340 308 346 359 322 264 238 255 273 235 148 114 293 262 256 240 144 149 145 135 128 137 142 140 143 145 142 135 123 120
342 335 328 321 314 305 300 295 293 291 288 288 286 281 277 273 276 277 275 264 265 262 268 266 259 296 200 247 277 253 210 175 189 167 215 199 130 232 222 233 209 218 239 228 252 261 267 255 210 230 214 126 274 293 343 321 358 332 282 37 290 4 279 271 166 248 279 200 126 110 224 270 260 111 160 158 150 147 139 141 144 148 150 146 138 131 131 134
346 341 333 325 317 311 306 302 296 291 289 287 285 279 268 267 270 272 267 270 259 251 257 255 186 156 320 270 264 267 265 147 176 202 199 160 164 283 236 234 242 226 217 219 236 241 247 306 285 40 291 278 26 20 320 349 336 318 24 321 334 216 276 296 309 213 221 281 135 139 236 246 261 139 172 166 149 142 141 152 151 155 154 144 138 135 134 137
348 345 339 331 323 313 309 303 301 300 295 290 286 283 278 273 267 259 259 257 258 246 252 358 189 197 352 287 260 316 336 137 202 194 208 164 166 197 218 215 252 257 238 257 232 267 270 188 194 198 291 2 36 78 11 12 339 345 115 288 281 282 268 338 279 201 212 212 164 169 224 323 307 205 175 164 150 146 144 158 156 152 148 141 139 141 141 136
347 347 343 335 327 321 313 308 304 300 297 292 289 284 281 272 266 258 256 248 245 198 208 199 118 183 349 234 304 311 227 225 159 167 189 201 170 202 171 220 249 245 259 295 299 335 316 17 295 40 9 201 150 70 16 21 325 310 4 229 223 237 285 287 291 265 209 173 221 200 202 236 246 156 155 158 153 151 152 149 146 146 146 145 139 143 151 153
346 346 344 340 332 326 318 312 310 305 302 292 277 274 274 274 282 314 266 205 206 201 228 261 245 290 274 319 278 234 184 146 182 192 188 201 180 189 179 202 237 214 352 333 338 239 291 282 8 195 3 4 37 59 104 248 199 264 323 356 326 289 217 248 252 288 140 197 188 196 206 267 27 143 154 168 168 157 156 154 154 152 148 145 146 153 161 158
345 343 343 342 338 331 325 318 314 312 309 304 291 271 263 246 325 234 236 171 130 34 12 225 117 137 165 202 291 322 267 201 145 140 216 186 214 189 201 212 253 125 249 118 279 196 314 305 22 30 278 309 248 164 185 220 210 243 225 191 216 310 310 243 258 257 143 148 180 157 190 254 299 159 338 201 170 149 140 134 145 148 146 149 156 161 160 161
344 342 342 343 341 334 327 320 315 313 319 321 341 66 102 23 357 23 12 248 226 212 242 201 206 272 300 289 269 240 261 118 160 227 196 181 132 185 227 189 226 131 127 178 272 264 139 167 214 215 217 224 240 202 203 229 221 240 124 107 158 321 287 304 345 333 143 93 29 129 130 120 40 150 167 135 38 137 138 145 152 155 151 160 168 170 162 162
341 342 339 340 341 338 328 324 318 318 318 308 297 15 324 152 40 307 236 225 223 231 234 233 190 215 239 287 295 307 322 257 199 208 212 170 120 124 248 163 61 259 242 188 173 270 76 219 251 228 222 211 223 233 212 156 223 88 348 51 338 326 313 304 285 324 9 108 193 323 102 143 261 294 181 143 157 173 163 152 158 163 166 170 167 161 163 159
341 339 339 338 336 339 331 321 321 315 309 315 301 258 242 217 199 227 339 306 254 220 225 236 221 242 252 250 259 262 297 291 246 253 263 147 192 155 281 182 161 222 284 353 12 359 107 210 241 233 229 220 256 250 186 203 78 27 317 261 5 317 264 301 325 357 3 90 262 352 54 231 266 254 157 148 172 184 180 168 171 162 167 173 166 159 156 151
340 339 338 336 336 333 335 320 311 33 341 105 134 227 245 225 326 324 312 265 286 198 210 223 236 236 257 256 253 169 195 231 222 227 211 151 113 184 163 181 197 223 270 120 203 207 286 287 244 241 190 179 255 209 98 52 52 76 357 19 265 227 55 315 300 340 350 58 321 340 22 287 305 292 180 175 168 189 192 180 169 169 169 173 173 167 163 165
337 336 336 336 333 332 325 325 304 299 215 218 242 224 252 290 305 329 358 264 293 294 206 219 203 217 236 223 209 189 214 211 211 228 206 140 163 173 161 189 197 184 240 210 197 187 218 243 315 324 182 190 219 201 138 69 312 309 193 237 237 340 202 201 274 318 302 333 150 50 22 335 25 19 354 318 245 155 178 195 213 193 185 176 161 155 167 165
335 336 335 333 333 329 325 315 346 238 206 203 238 251 257 259 251 182 212 330 331 278 191 231 193 223 235 172 200 198 209 216 205 177 183 162 141 105 218 140 134 231 225 217 177 248 275 267 260 305 213 192 167 174 190 123 357 311 245 211 228 174 177 292 320 20 23 339 336 113 23 313 312 326 243 278 114 186 185 177 201 187 156 146 168 164 166 158
333 330 333 332 329 331 309 343 280 339 286 262 245 306 327 311 252 184 104 72 296 269 305 264 143 251 157 227 139 201 117 231 200 195 159 191 172 168 119 207 160 234 228 212 210 209 225 250 171 206 141 84 88 149 211 128 176 93 274 184 203 154 129 84 36 57 39 81 294 65 135 266 332 338 301 317 186 194 193 228 206 175 172 176 168 165 166 160
330 327 328 330 329 338 5 280 326 304 334 309 331 330 299 301 199 81 49 350 349 243 176 276 177 286 125 220 174 131 233 264 239 161 167 166 191 144 154 224 345 330 168 169 43 293 287 211 132 101 92 85 67 304 264 153 115 232 241 164 186 68 80 129 102 91 221 249 299 34 109 171 308 288 256 240 129 195 228 216 208 217 173 175 175 169 167 166
326 325 326 326 323 327 211 318 336 326 230 252 309 315 308 290 41 48 84 19 299 270 109 137 224 338 279 240 148 164 203 199 63 248 183 182 141 159 185 206 193 197 244 67 281 256 157 207 142 132 106 99 196 205 228 124 140 215 282 215 262 257 162 133 95 129 259 77 304 327 341 36 262 269 299 44 336 280 215 214 185 188 193 178 180 177 173 161
322 321 324 324 321 314 194 187 216 247 237 309 313 310 318 24 73 108 125 98 252 62 261 131 285 124 275 90 183 196 243 82 171 248 125 149 172 132 211 230 173 161 197 144 201 292 296 191 208 152 125 187 223 225 176 131 60 275 231 151 51 57 58 89 99 77 355 63 290 283 357 205 285 277 323 335 63 316 293 314 174 178 182 181 172 133 126 133
319 320 322 323 323 102 168 213 230 240 302 315 304 304 352 50 36 43 358 243 305 298 227 219 127 228 151 152 214 224 235 282 154 24 150 154 214 37 229 161 171 188 251 352 180 220 247 271 180 118 175 201 191 234 177 163 206 170 53 85 4 38 1 5 74 94 55 49 255 245 294 135 309 277 256 335 289 208 67 317 130 145 136 128 139 139 140 153
317 317 315 320 267 267 332 273 250 237 247 292 310 343 63 36 114 97 199 230 294 249 293 36 236 103 145 159 211 242 235 218 237 143 249 54 157 189 8 347 25 51 39 3 323 312 337 337 132 261 176 143 155 34 307 123 125 133 66 83 28 346 5 29 343 40 101 279 259 256 61 107 128 300 309 264 291 298 152 137 110 127 127 123 116 120 135 150
317 313 306 296 226 279 182 233 223 33 345 335 4 46 66 34 7 150 213 319 44 281 107 282 109 285 202 210 182 188 200 226 167 172 176 190 145 178 225 194 176 12 337 277 267 357 347 357 272 310 282 137 90 3 305 11 20 76 79 41 99 270 33 335 9 343 220 192 253 312 41 29 228 219 247 321 328 330 273 128 124 119 114 105 109 119 123 118
317 308 307 281 228 200 240 248 306 317 335 0 45 55 57 105 219 251 278 305 242 94 310 8 262 274 233 197 233 200 189 226 196 210 174 187 149 216 226 186 183 142 184 246 162 16 283 283 9 291 344 127 102 144 291 352 351 99 179 132 76 95 54 234 280 229 319 299 271 290 299 217 249 300 248 323 337 357 293 120 125 124 123 120 117 114 112 114
315 311 308 235 192 212 230 198 226 289 4 36 73 36 58 94 240 243 231 247 255 327 327 308 319 295 264 202 239 173 185 224 173 207 144 174 105 212 312 305 147 82 125 209 237 180 45 354 312 39 301 258 135 171 176 177 196 223 154 150 176 140 159 215 202 201 210 209 258 283 69 228 88 234 299 353 45 34 349 50 89 84 93 109 106 97 91 92
313 298 259 267 238 240 231 227 201 148 80 67 56 89 143 229 246 228 251 290 292 295 309 331 297 233 293 309 276 191 129 324 256 131 215 134 207 165 186 238 237 130 120 105 265 82 205 203 251 214 214 185 197 215 141 111 51 300 115 75 83 217 137 175 199 152 218 166 350 312 203 183 138 229 321 69 73 52 17 27 55 74 82 84 82 85 91 93
313 306 236 260 222 252 181 190 162 153 120 71 84 130 192 194 214 196 228 220 281 346 332 321 323 176 171 235 298 343 83 179 226 265 336 191 193 192 218 185 193 180 128 165 195 189 32 281 270 321 354 349 263 191 223 115 103 261 47 39 234 183 121 92 22 255 104 53 257 205 317 321 297 8 28 14 89 116 97 49 70 74 64 67 79 83 78 75
329 326 342 261 250 209 159 149 146 133 99 103 106 225 207 266 226 281 285 294 336 337 323 17 297 15 169 258 329 217 218 339 245 161 247 260 285 355 330 281 187 181 181 140 329 186 139 236 295 90 335 297 327 231 166 140 140 70 74 238 267 88 122 119 188 339 63 142 257 20 198 294 81 220 344 30 85 60 128 139 131 109 92 67 64 77 87 82
313 297 255 255 241 209 144 141 123 121 97 101 176 222 209 227 228 235 311 321 317 327 326 282 267 297 243 110 299 329 230 168 252 211 202 219 216 223 316 287 316 89 152 138 120 252 105 353 300 303 358 289 337 35 9 335 72 151 201 177 94 285 338 318 95 221 115 250 259 327 236 242 147 247 339 8 119 105 61 15 109 115 121 128 115 101 85 74
250 328 326 256 260 172 147 133 114 125 86 101 230 134 270 244 280 277 278 277 281 295 290 227 204 297 71 45 30 337 108 218 206 198 193 268 120 223 194 181 278 115 127 99 74 182 59 147 297 302 70 291 18 51 18 312 341 359 344 45 130 101 170 95 199 181 119 236 67 284 50 190 223 193 236 298 229 125 119 98 94 114 130 128 129 122 114 114
1 14 286 263 305 124 130 121 98 90 90 176 213 223 247 291 275 278 269 251 275 182 223 236 192 233 358 181 124 197 291 352 232 253 167 256 137 233 142 278 292 113 163 98 125 144 75 112 203 282 297 23 23 21 106 47 4 341 16 343 40 53 215 111 24 74 153 164 164 178 17 291 275 215 175 157 118 24 140 131 130 120 102 101 102 109 106 111
286 136 273 274 18 90 109 88 108 164 179 260 166 213 244 252 303 284 287 273 274 254 233 224 195 199 207 331 323 218 165 322 326 0 39 220 165 101 251 207 150 340 30 29 54 356 79 28 195 306 15 18 218 225 21 334 270 212 207 232 174 128 133 116 244 349 77 95 189 109 240 265 269 70 225 207 139 137 159 124 117 117 127 125 118 109 111 93
31 12 263 300 353 98 113 134 216 183 121 168 230 198 240 236 255 265 274 274 242 258 239 241 235 200 214 218 201 110 124 56 335 39 5 104 36 127 296 33 81 111 104 90 150 232 145 146 94 34 222 239 256 271 178 58 155 190 122 345 30 108 100 95 131 255 24 250 117 137 119 280 240 276 117 180 196 133 140 126 126 137 144 131 122 126 108 93
25 241 268 310 315 38 85 63 315 36 187 229 238 258 250 270 266 281 293 285 292 243 316 35 311 349 13 25 9 97 105 78 137 100 107 80 40 24 208 118 100 63 74 332 26 309 74 78 41 303 317 303 316 355 82 30 40 26 5 45 43 355 207 161 170 183 138 126 78 42 116 242 290 261 107 163 117 119 120 122 126 115 103 103 111 104 104 102
280 288 319 322 353 47 77 167 239 240 255 299 235 260 217 245 260 274 260 293 274 185 157 189 347 79 26 10 39 39 34 84 13 44 359 13 147 228 166 121 115 110 96 215 130 252 71 297 120 44 356 339 340 348 2 346 54 74 313 335 65 40 23 353 98 76 99 212 164 126 196 276 270 330 102 68 81 94 101 88 119 116 110 113 111 112 105 105
291 274 258 309 346 37 71 240 126 261 280 257 259 300 305 286 219 243 219 25 358 3 20 25 318 45 50 350 43 36 39 107 148 9 82 18 347 359 360 50 87 87 73 157 141 120 96 183 96 120 135 142 276 278 303 334 305 282 349 352 17 47 19 28 13 354 90 281 97 104 167 254 287 56 95 107 99 81 77 103 79 116 130 126 128 124 124 119
11 9 311 339 0 2 52 325 71 13 314 315 5 268 277 309 322 347 31 67 5 60 39 27 26 65 44 40 37 26 15 8 68 7 38 348 348 2 353 47 44 72 67 94 98 87 125 87 99 149 148 181 202 211 245 44 18 24 320 27 349 0 47 104 116 77 137 223 100 212 151 139 105 82 123 137 130 129 126 118 126 120 130 140 137 142 148 157
352 52 349 340 323 23 343 351 9 15 334 275 79 332 11 8 323 354 19 70 8 13 60 31 15 47 339 63 49 44 357 50 12 73 13 347 323 330 324 43 54 61 66 46 52 78 69 69 235 110 132 181 187 188 251 105 100 293 29 345 25 29 24 70 82 1 183 71 333 274 292 118 196 194 236 209 169 151 152 156 155 167 172 169 165 161 140 136
52 313 57 296 250 289 355 350 349 336 339 42 56 349 36 27 28 18 354 59 38 22 72 12 35 39 28 71 99 56 335 47 46 31 321 12 338 346 14 1 42 351 37 19 16 106 130 118 252 105 37 133 139 68 27 56 109 93 61 76 51 51 59 80 345 278 110 116 177 279 343 120 229 329 179 201 209 180 175 172 164 161 159 154 153 154 157 156
89 316 314 338 71 286 224 276 301 284 27 19 153 34 41 35 41 33 15 332 25 16 31 85 35 34 43 32 67 89 10 55 352 343 45 341 17 329 9 338 350 3 31 25 19 82 87 342 226 96 102 26 15 31 30 48 15 67 62 41 179 79 133 137 152 207 120 153 186 155 120 94 339 343 4 350 13 97 112 118 96 79 100 43 19 324 190 164
4 24 326 358 336 300 313 325 335 21 43 7 43 9 34 40 36 23 32 33 30 19 23 75 51 43 46 54 56 77 52 110 141 306 333 25 338 30 329 116 317 336 15 25 27 342 97 270 129 61 70 337 326 49 49 53 57 26 289 254 245 176 82 160 133 27 73 60 37 65 88 64 343 353 354 359 12 57 71 69 64 44 42 72 96 103 271 334
277 195 249 339 11 353 356 18 359 27 38 5 21 8 29 26 40 25 59 38 58 34 33 97 106 66 39 45 44 51 12 29 324 267 237 162 274 298 29 282 31 334 352 0 24 330 75 212 44 68 80 308 324 58 32 53 68 61 349 356 6 30 49 0 72 284 125 158 105 78 56 53 276 352 315 37 56 57 60 50 55 43 40 61 79 52 161 157
263 256 321 159 67 349 29 354 25 33 29 348 354 356 23 20 8 38 48 21 41 53 63 113 114 90 41 55 40 346 310 264 280 283 288 269 227 258 233 256 286 306 309 28 29 98 154 120 103 92 86 260 267 75 53 38 30 11 335 309 308 71 95 75 39 23 37 135 91 110 199 235 288 314 90 48 64 61 55 45 55 49 43 60 51 30 356 157